Terminal Aerodrome Forecast
Issued by NWS

Home | Current Version | Previous Version | Text Only | Print | Product List | Glossary On
Versions: 1 2 3 4 5 6 7 8 9 10 11 12 13 14
562
FTPA31 PHFO 290547
TAFHJR
TAF
PHJR 290547Z 2906/3006 06011KT P6SM FEW040
     FM291900 06011G16KT P6SM FEW025 SCT040
     FM300500 05011KT P6SM SCT025 SCT040=

USA.gov is the U.S. government's official web portal to all federal, state and local government web resources and services.